Location: ????????????
(52.8833°N, 54.0167°E)
Time: 08:41:12
(UTC+00:00)

Daily predictions for brighter satellites

Satellite Brightness Start Highest point End
(mag) Time Altitude Azimuth Time Altitude Azimuth Time Altitude Azimuth
Unknown 3.7 13:46:06 10° WSW 13:50:13 72° SSE 13:54:22 10° E
Cosmos 1758 Rocket 4.0 13:46:11 10° NNW 13:50:38 71° W 13:55:05 10° S
SMAP 3.4 13:46:21 10° S 13:51:00 74° WSW 13:55:41 10° NNW
Unknown 3.7 13:47:45 10° WSW 13:51:53 72° SSE 13:56:02 10° E
FengYun 1-2 T 4.4 13:48:38 10° SE 13:54:04 53° ENE 13:59:30 10° N
Cosmos 2278 Rocket 3.3 13:49:57 10° SSE 13:54:23 24° ESE 13:58:51 10° NE
Cosmos 1242 Rocket 2.6 13:51:02 10° N 13:54:43 60° ENE 13:58:21 10° SSE
Unknown 3.7 13:51:04 10° WSW 13:55:12 74° SSE 13:59:22 10° E
Starlink (trailer) 3.7 13:52:43 10° WSW 13:56:51 75° SSE 14:01:00 10° E
ASTEX 1 3.8 13:52:16 10° NNE 13:56:57 40° E 14:01:37 10° SSE
Unknown 3.7 13:54:21 10° WSW 13:58:29 76° SSE 14:02:39 10° E
Unknown 3.7 13:56:02 10° WSW 14:00:11 76° SSE 14:04:21 10° E
Cosmos 1844 3.8 13:54:47 10° SSW 14:00:29 69° ESE 14:06:16 10° NE
Cosmos 1953 2.4 14:01:34 10° SSW 14:05:38 85° W 14:09:44 10° N
Cosmos 1908 4.1 14:02:44 10° SSE 14:06:06 29° E 14:09:30 10° NNE
Unknown 3.6 14:02:03 10° WSW 14:06:12 80° SSE 14:10:10 11° E
Unknown 3.6 14:02:21 10° WSW 14:06:30 79° SSE 14:10:26 11° E
Unknown 3.6 14:02:38 10° WSW 14:06:48 79° SSE 14:10:44 11° E
Unknown 3.6 14:05:33 10° WSW 14:09:42 81° SSE 14:13:33 12° E
SKYMED 2 4.1 14:06:09 10° NNE 14:10:14 38° E 14:14:17 10° SSE
CSL-04 Rocket 3.8 14:05:16 10° SE 14:10:39 55° ENE 14:15:59 10° N
Unknown 3.6 14:07:41 10° WSW 14:11:51 82° SSE 14:15:36 13° E
Cosmos 2263 Rocket 3.9 14:08:17 10° WSW 14:13:15 30° NW 14:18:13 10° NNE
Unknown 3.6 14:09:27 10° WSW 14:13:37 83° SSE 14:17:17 13° E
Lacrosse 5 1.9 14:10:01 10° WNW 14:15:06 89° SSW 14:20:11 10° ESE
H-2A R/B 3.7 14:12:12 11° E 14:15:10 16° NE 14:18:26 10° NNE
YAOGAN 1 2.7 14:11:13 10° SE 14:15:25 51° ENE 14:19:38 10° N
Cosmos 1726 2.2 14:12:29 10° S 14:16:02 50° E 14:19:36 10° NNE
Cosmos 2058 4.2 14:13:40 10° NNE 14:16:56 21° ENE 14:20:10 10° ESE
Unknown 3.6 14:12:46 10° WSW 14:16:56 84° SSE 14:20:29 14° E
Unknown 3.6 14:12:56 10° WSW 14:17:05 84° S 14:20:38 14° E
Envisat 3.0 14:12:56 10° SSE 14:18:01 89° ENE 14:23:09 10° NNW
Unknown 3.6 14:14:19 10° WSW 14:18:28 84° S 14:21:58 14° E
Cosmos 2228 3.1 14:14:46 10° S 14:19:08 87° W 14:23:30 10° N
Unknown 3.6 14:16:10 10° W 14:19:32 58° SSW 14:22:44 11° ESE
Cosmos 2084 3.7 14:15:05 10° SW 14:19:36 78° NW 14:24:04 10° NE
Cosmos 1898 Rocket 4.5 14:16:01 10° NNW 14:20:36 29° NE 14:24:38 12° ESE
Unknown 3.3 14:16:57 10° W 14:20:43 90° N 14:23:44 15° E
Unknown 3.6 14:17:32 10° WSW 14:21:42 85° SSE 14:25:03 15° E
Abrixas rocket 4.0 14:20:51 10° SSW 14:22:57 17° SSE 14:24:27 13° ESE
FALCON 9 DEB 3.5 14:21:05 10° W 14:24:31 61° SSW 14:27:31 13° ESE
Cosmos 1726 Rocket 3.6 14:20:10 10° SSW 14:24:32 82° W 14:28:56 10° N
Unknown 3.6 14:20:57 10° WSW 14:25:06 86° S 14:28:19 16° E
NOAA 11 4.5 14:20:15 10° SE 14:25:23 45° ENE 14:30:34 10° N
Cosmos 1833 Rocket 2.6 14:19:54 10° NNW 14:25:34 79° ENE 14:31:12 10° SE
Meteor 2-10 3.9 14:21:04 10° S 14:26:02 62° E 14:31:02 10° NNE
Unknown 3.6 14:22:38 10° W 14:26:48 87° SSE 14:29:57 17° E
Cosmos 921 Rocket 3.1 14:22:39 10° SSW 14:27:10 89° NW 14:31:38 10° NNE
USA 238 DEB 4.5 14:21:52 10° S 14:27:30 29° ESE 14:33:16 10° ENE
USA 238 4.5 14:22:00 10° S 14:27:37 29° ESE 14:33:20 10° ENE
Unknown 3.6 14:24:18 10° W 14:28:27 87° S 14:31:33 18° E
Unknown 3.6 14:25:58 10° W 14:30:08 88° S 14:33:09 18° E
Unknown 3.6 14:29:19 10° W 14:33:28 89° S 14:36:22 19° E
Unknown 3.6 14:31:01 10° W 14:35:11 89° S 14:38:00 20° E
Unknown 3.6 14:32:36 10° W 14:36:47 90° SE 14:39:32 21° E
Cosmos 1328 4.3 14:32:53 10° NNW 14:36:51 62° W 14:40:44 10° S
Cosmos 1892 4.4 14:34:28 10° NNE 14:36:39 16° ENE 14:36:39 16° ENE
Unknown 3.6 14:33:53 10° W 14:37:22 59° SSW 14:39:50 18° SE
Unknown 3.6 14:34:14 10° W 14:38:24 90° S 14:41:06 21° E
Unknown 3.6 14:35:01 10° W 14:39:10 90° NNW 14:41:50 22° E
Cosmos 1356 3.4 14:36:19 10° SSW 14:39:46 89° W 14:43:14 10° NNE
Falcon 9 debris 3.9 14:37:16 10° W 14:40:36 48° SSW 14:43:04 17° SE
Unknown 3.6 14:37:24 10° W 14:41:34 90° SSE 14:44:08 23° E
USA 116 3.5 14:39:39 10° NNE 14:42:43 42° E 14:45:57 10° S
Unknown 3.6 14:40:46 10° W 14:44:55 89° N 14:47:21 24° E
Cosmos 1939 Rocket 3.0 14:41:29 10° SSE 14:45:23 53° ENE 14:49:23 10° N
COBE Rocket 4.1 14:41:18 10° NNE 14:46:30 81° WNW 14:51:35 10° SSW
Unknown 3.6 14:42:24 10° W 14:46:35 89° N 14:48:57 25° E
Cosmos 2058 Rocket 3.3 14:43:09 10° SSW 14:47:30 73° WNW 14:51:54 10° N
YAOGAN 6 3.1 14:44:14 10° S 14:47:51 63° W 14:51:28 10° NNW
Unknown 3.3 14:44:18 10° W 14:48:09 89° S 14:50:09 27° E
Cosmos 2227 Rocket 4.4 14:46:00 10° NNW 14:48:20 12° N 14:50:41 10° NNE
Cosmos 1339 Rocket 4.4 14:42:19 10° S 14:48:21 69° E 14:54:30 10° NNE
Unknown 3.6 14:44:18 10° W 14:48:27 88° N 14:50:45 26° E
Unknown 3.6 14:45:44 10° W 14:49:54 88° N 14:52:08 27° E
Cosmos 1459 Rocket 4.3 14:44:13 10° N 14:50:11 45° ENE 14:56:11 10° SE
NOSS 3-2 (A) 4.1 14:46:13 10° S 14:51:18 32° ESE 14:54:57 18° ENE
Unknown 3.6 14:47:22 10° W 14:51:32 88° N 14:53:42 27° E
Cosmos 2297 Rocket 4.4 14:51:17 10° NNW 14:53:34 12° N 14:55:50 10° NNE
Cosmos 2082 Rocket 2.2 14:48:12 10° NNW 14:53:57 88° ENE 14:59:40 10° SSE
Unknown 3.6 14:50:45 10° W 14:54:55 88° N 14:56:57 29° E
SJ 16-02 2.2 14:51:39 10° N 14:55:32 29° NE 14:56:32 26° ENE
Unknown 3.6 14:52:23 10° W 14:56:33 88° N 14:58:32 30° E
CSL-04 Debris 4.5 14:52:03 10° S 14:57:30 71° WSW 15:03:01 10° NNW
Unknown 3.6 14:54:04 10° W 14:58:14 87° N 15:00:08 31° E
CZ-2D R/B 3.1 14:54:34 10° SSE 14:58:26 78° ENE 15:02:21 10° NNW
COSMO-SKYMED 1 2.7 14:54:05 10° NNE 14:58:28 79° WNW 15:02:48 10° SSW
Cosmos 1605 Rocket 4.2 14:52:33 10° NNW 14:58:46 74° W 15:04:51 10° S
Unknown 4.0 14:55:58 10° W 14:59:19 44° SSW 15:01:04 24° SSE
Unknown 3.5 14:55:43 10° W 14:59:53 87° N 15:01:43 32° E
Cosmos 1461 3.9 14:56:18 10° NW 15:00:12 45° SW 15:04:12 10° SSE
Cosmos 1300 3.1 14:56:58 10° SSE 15:00:30 37° E 15:04:04 10° NNE
Ariane Rocket 2.9 14:55:35 10° SSE 15:00:38 69° ENE 15:05:45 10° NNW
CZ-2C R/B 4.4 14:59:56 23° ENE 15:01:12 25° NE 15:05:44 10° N
Unknown 3.5 14:59:07 10° W 15:03:18 87° N 15:04:59 35° E
Unknown 3.5 15:00:16 10° W 15:04:25 87° N 15:06:04 36° E
Unknown 3.5 15:00:55 10° W 15:05:05 87° N 15:06:42 36° E
Unknown 3.4 15:01:33 10° W 15:05:28 87° S 15:06:50 39° ESE
Unknown 3.5 15:01:58 10° W 15:06:01 87° N 15:07:31 38° E
Unknown 3.5 15:02:36 10° W 15:06:47 87° N 15:08:20 37° E
Cosmos 1844 Rocket 3.9 15:03:57 10° WSW 15:09:15 40° NW 15:14:35 10° NNE
Unknown 3.5 15:05:09 10° W 15:09:15 87° N 15:10:40 40° E
Unknown 3.5 15:05:45 10° W 15:09:55 87° N 15:11:21 40° E
Cosmos 2084 Rocket 3.7 15:07:35 10° NW 15:12:02 71° SW 15:14:30 25° SSE
Unknown 3.5 15:09:04 10° W 15:13:14 87° N 15:14:32 43° E
ATLAS CENTAUR R/B 3.0 15:09:56 10° NW 15:13:43 23° NNE 15:14:55 21° NE
Cosmos 1727 Rocket 3.9 15:07:50 10° S 15:13:59 74° E 15:20:10 10° NNE
CZ-4 R/B 3.1 15:10:21 10° SSW 15:14:15 37° W 15:18:12 10° NNW
Cosmos 1937 Rocket 3.7 15:09:27 10° NNW 15:14:27 47° ENE 15:16:08 35° ESE
Unknown 3.5 15:10:43 10° W 15:14:54 87° N 15:16:07 45° E
NOSS 3-2 (C) 4.1 15:11:14 10° S 15:16:18 31° ESE 15:16:55 31° ESE
Unknown 3.5 15:12:23 10° W 15:16:34 87° N 15:17:44 46° E
Cosmos 1766 Rocket 4.0 15:12:35 10° N 15:16:34 37° ENE 15:16:34 37° ENE
Cosmos 990 Rocket 4.0 15:11:45 10° NNW 15:16:55 60° ENE 15:19:16 31° SE
Cosmos 2173 Rocket 3.9 15:10:56 10° N 15:17:12 67° ENE 15:23:21 10° SSE
Unknown 3.5 15:14:02 10° W 15:18:12 87° N 15:19:18 48° E
Cosmos 292 Rocket 4.5 15:13:49 10° SW 15:18:29 54° WNW 15:23:11 10° NNE
ADEOS Rocket 4.0 15:11:48 10° NNE 15:18:40 34° E 15:25:06 10° SSE
In-Cosmos 22 Rocket 4.0 15:13:29 10° N 15:18:52 65° ENE 15:23:07 17° SSE
Cosmos 1802 Rocket 4.0 15:15:57 10° N 15:22:22 62° ENE 15:27:55 14° SSE
Okean 3 Rocket 3.7 15:18:35 10° N 15:23:04 55° ENE 15:24:08 43° ESE
Unknown 3.5 15:20:40 10° W 15:24:50 87° N 15:25:40 56° E
Resurs 01 Rocket 3.2 15:27:19 20° NE 15:27:19 20° NE 15:29:34 10° N
HJ-1C 3.3 15:25:28 46° S 15:26:22 82° W 15:29:45 10° NNW
Unknown 3.5 15:22:22 10° W 15:26:33 87° N 15:27:18 59° E
BREEZE-M DEB (TANK) 3.6 15:20:22 10° SW 15:27:35 32° SSE 15:28:07 31° SSE
Unknown 3.5 15:23:59 10° W 15:28:09 88° N 15:28:51 61° E
Unknown 3.5 15:25:40 10° W 15:29:49 88° N 15:30:27 63° E
ATLAS 5 CENTAUR R/B 3.2 15:27:07 10° W 15:31:19 32° NNW 15:34:35 17° NE
Unknown 3.5 15:27:19 10° W 15:31:30 88° N 15:32:03 66° E
Cosmos 2123 Rocket 4.4 15:31:54 38° E 15:32:13 38° E 15:37:55 10° NNE
Cosmos 1076 Rocket 4.0 15:29:22 10° NNW 15:33:42 62° W 15:37:59 10° S
Unknown 3.4 15:30:39 10° W 15:34:49 88° N 15:35:15 71° E
Starlink (trailer) 3.4 15:32:18 10° W 15:36:28 89° NNE 15:36:50 74° E
SPOT 3 Rocket 3.5 15:35:57 45° ESE 15:37:17 60° ENE 15:42:26 10° N
Cosmos 2278 Rocket 2.4 15:32:16 10° SW 15:37:57 74° WNW 15:43:40 10° NNE
Unknown 3.4 15:33:57 10° W 15:38:07 89° N 15:38:25 77° E
Cosmos 1725 Rocket 4.0 15:32:21 10° N 15:38:33 56° ENE 15:40:42 38° SE
Cosmos 2233 Rocket 4.4 15:32:56 10° N 15:38:49 40° ENE 15:39:17 39° E
Unknown 3.4 15:35:39 10° W 15:39:49 89° N 15:40:03 80° E
Cosmos 2297 3.9 15:35:03 10° S 15:40:29 48° ESE 15:40:41 48° ESE
SJ-6B 3.5 15:41:35 41° NNE 15:41:35 41° NNE 15:44:13 10° N
Cosmos 1000 Rocket 4.4 15:35:10 10° S 15:41:17 67° E 15:47:31 10° NNE
Cosmos 1812 Rocket 3.9 15:37:43 10° SSW 15:42:08 67° WNW 15:46:37 10° N
Cosmos 2100 Rocket 4.0 15:36:36 10° NNW 15:42:49 81° W 15:48:58 10° S
Unknown 3.5 15:41:40 10° W 15:45:48 89° SW 15:45:48 89° SW
Unknown 3.5 15:41:55 10° W 15:46:01 88° WSW 15:46:01 88° WSW
Unknown 3.5 15:42:14 10° W 15:46:23 88° WSW 15:46:23 88° WSW
ATLAS 3B R/B 3.4 15:40:46 10° S 15:45:04 31° SSE 15:45:04 31° SSE
Unknown 3.6 15:45:07 10° W 15:49:09 83° W 15:49:09 83° W
Unknown 3.6 15:47:18 10° W 15:51:14 79° W 15:51:14 79° W
Unknown 3.7 15:49:05 10° W 15:52:56 76° W 15:52:56 76° W
H-2A R/B 2.0 15:52:50 59° ESE 15:53:41 70° ENE 15:59:07 10° NNW
Cosmos 2058 3.7 15:50:03 10° NNW 15:54:10 52° W 15:56:28 24° SSW
SL-27 R/B 4.4 15:51:20 10° NNW 15:52:40 22° NNW 15:52:40 22° NNW
CENTAUR R/B 3.3 15:50:02 10° S 15:53:31 31° SSE 15:53:31 31° SSE
Unknown 3.8 15:52:23 10° W 15:56:07 71° W 15:56:07 71° W
Unknown 3.8 15:52:33 10° W 15:56:16 70° W 15:56:16 70° W
Lacrosse 5 3.5 15:53:21 10° WNW 15:57:39 28° SW 15:59:49 21° S
Unknown 3.8 15:53:56 10° W 15:57:37 68° W 15:57:37 68° W
Unknown 4.5 15:55:03 10° W 15:57:57 39° WSW 15:57:57 39° WSW
Cosmos 2151 3.1 15:54:33 10° NNW 15:58:29 72° NNW 15:58:29 72° NNW
Unknown 4.0 15:57:10 10° W 16:00:42 63° W 16:00:42 63° W
ARGOS 3.0 16:00:51 68° ESE 16:01:25 75° ENE 16:06:52 10° NNW
Cosmos 2016 Rocket 3.9 15:55:24 10° N 16:01:43 88° W 16:05:10 29° S
Cosmos 1898 Rocket 3.9 15:57:52 10° NNW 16:03:05 63° WSW 16:04:57 39° S
Unknown 4.1 16:00:34 10° W 16:03:58 58° W 16:03:58 58° W
Unknown 4.2 16:02:16 10° W 16:05:36 56° W 16:05:36 56° W
Cosmos 1238 Rocket 4.2 16:00:28 10° N 16:06:42 51° ENE 16:06:42 51° ENE
Meteor 2-3 Rocket 4.3 16:02:11 10° N 16:06:47 43° NE 16:06:47 43° NE
Unknown 4.3 16:03:56 10° W 16:07:12 54° W 16:07:12 54° W
SL-08 R/B 4.3 16:03:01 10° N 16:09:11 90° E 16:11:02 48° S
Unknown 4.3 16:05:36 10° W 16:08:48 52° W 16:08:48 52° W
Cosmos 1892 4.1 16:09:14 10° NNW 16:11:40 35° NNW 16:11:40 35° NNW
Unknown 4.5 16:08:57 10° W 16:12:01 48° W 16:12:01 48° W
USA 238 DEB 3.6 16:11:01 10° SW 16:17:46 84° NW 16:20:44 38° NE
USA 238 3.6 16:11:07 10° SW 16:17:54 85° NW 16:20:48 39° NE
SJ 16-02 2.6 16:30:07 10° NW 16:33:33 39° WNW 16:33:33 39° WNW
Cosmos 2227 Rocket 4.1 16:31:10 10° NNW 16:34:40 17° NNE 16:34:40 17° NNE
Cosmos 2297 Rocket 4.1 16:36:10 10° NNW 16:39:31 18° NNE 16:39:31 18° NNE
CZ-2C R/B 3.4 16:41:00 74° NW 16:41:00 74° NW 16:46:19 10° NNW
NOSS 3-2 (A) 3.6 16:35:36 10° SW 16:41:35 74° NW 16:42:22 66° NNE
Terra 4.4 16:52:25 11° N 16:52:25 11° N 16:52:43 10° N
ATLAS CENTAUR R/B 3.5 16:48:59 10° NW 16:51:06 26° NNW 16:51:06 26° NNW
Resurs 01 Rocket 3.8 17:04:54 23° NNW 17:04:54 23° NNW 17:06:38 10° NNW
ADEOS Rocket 3.7 16:57:00 10° NNE 17:04:42 70° WNW 17:11:54 10° SSW
NOSS 3-2 (C) 4.3 17:00:37 10° SW 17:04:26 43° WSW 17:04:26 43° WSW
ATLAS 5 CENTAUR R/B 3.9 17:13:05 10° NW 17:16:08 25° NNW 17:16:08 25° NNW
Cosmos 2278 Rocket 4.3 17:18:34 10° W 17:23:01 23° NNW 17:26:51 12° NNE
H-2A R/B 4.1 17:33:28 23° W 17:33:37 23° W 17:37:53 10° NW
ATLAS 3B R/B 4.4 17:30:23 10° SW 17:32:24 21° WSW 17:32:24 21° WSW
CENTAUR R/B 4.2 21:32:57 35° ENE 21:32:57 35° ENE 21:38:21 10° E
Cosmos 2360 Rocket 4.5 22:06:25 20° NE 22:06:25 20° NE 22:08:18 10° NE
Cosmos 1980 Rocket 4.4 22:12:31 20° NNE 22:12:31 20° NNE 22:14:17 10° NNE
CZ-2D R/B 4.4 22:24:10 10° NNE 22:25:36 19° NNE 22:25:36 19° NNE
NOSS 3-2 (C) 4.4 22:45:01 56° E 22:45:01 56° E 22:51:27 10° ESE
Cosmos 2333 Rocket 3.7 22:57:03 31° E 22:57:03 31° E 23:01:21 10° NE
NOSS 3-1 (A) 4.4 23:01:35 43° N 23:01:35 43° N 23:07:16 10° NE
Lacrosse 4 Rocket 4.4 23:07:17 11° NNE 23:07:17 11° NNE 23:07:31 10° NNE
USA 234 3.6 23:01:00 10° ESE 23:06:09 59° ESE 23:06:09 59° ESE
SL-16 R/B 3.6 23:11:53 31° N 23:11:53 31° N 23:15:06 10° NNE
ATLAS 3B R/B 2.8 23:13:09 68° NE 23:13:09 68° NE 23:19:39 10° ESE
Cosmos 2219 Rocket 3.2 23:13:51 40° E 23:13:51 40° E 23:18:30 10° NE
NOSS 3-1 (C) 4.5 23:16:21 39° NNW 23:16:21 39° NNW 23:23:01 10° NE
Cosmos 2322 4.4 23:17:48 52° NE 23:17:48 52° NE 23:22:11 10° NE
COSMOS 2455 3.2 23:22:45 62° ENE 23:22:45 62° ENE 23:27:49 10° NE
CENTAUR R/B 3.0 23:20:12 56° NW 23:22:14 82° NE 23:30:52 10° SE
Resurs 1-4 Rocket 4.0 23:19:35 10° N 23:21:35 22° N 23:21:35 22° N
ARIANE 5 R/B 3.8 23:20:07 10° NNE 23:22:51 33° NNE 23:22:51 33° NNE
Cosmos 2237 Rocket 4.2 23:23:48 17° SE 23:26:27 24° ESE 23:30:52 10° NE
Aureole 1 Rocket 4.4 23:27:13 44° E 23:27:13 44° E 23:31:00 10° NE
Cosmos 2369 Rocket 4.5 23:31:08 10° NNW 23:35:09 19° NNE 23:39:08 10° ENE
Cosmos 2322 Rocket 3.4 23:40:20 32° NNW 23:40:20 32° NNW 23:44:03 10° NNE
ATLAS 2AS CENTAUR R/B 3.6 23:41:33 34° S 23:44:46 52° ESE 23:52:27 10° NE
Cosmos 2360 Rocket 2.8 23:48:12 46° NNW 23:48:12 46° NNW 23:52:38 10° NNE
COSMOS 2428 2.8 23:47:00 69° ESE 23:47:04 70° ESE 23:52:44 10° NE
ADEOS II 3.0 23:43:43 10° N 23:47:11 40° N 23:47:11 40° N
BREEZE-M DEB (TANK) 4.0 23:53:10 31° SE 23:53:10 31° SE 23:54:53 10° E
Meteor 2-21 Rocket 4.4 23:52:27 73° NW 23:52:27 73° NW 23:58:22 10° N
Cosmos 1980 Rocket 4.1 23:54:17 17° NNW 23:54:17 17° NNW 23:58:00 10° NNE
